Location: Zagreb
(45.8000°N, 16.0000°E)
Time: 12:19:09
(UTC+01:00)

S-56A Canister/Altair - All Passes

Search period start: 19 January 2022 00:00
Search period end: 29 January 2022 00:00
Orbit: 633 x 2499 km, 38.9° (Epoch: 18 January)

Date Brightness Start Highest point End Pass type
(mag) Time Alt. Az. Time Alt. Az. Time Alt. Az.
19 Jan - 08:46:14 10° SSW 08:50:23 21° SE 08:55:41 10° E daylight
19 Jan - 10:47:14 10° WSW 10:53:18 49° SSE 11:02:22 10° E daylight
19 Jan - 12:49:55 10° W 12:57:27 53° S 13:08:42 10° ESE daylight
19 Jan - 14:53:38 10° W 15:02:05 35° SSW 15:13:30 10° SSE daylight
19 Jan - 17:00:43 10° WSW 17:06:30 15° SW 17:12:58 10° SSW visible
20 Jan - 08:14:31 10° S 08:17:58 17° SE 08:22:08 10° ESE daylight
20 Jan - 10:15:01 10° SW 10:20:39 45° SSE 10:28:54 10° E daylight
20 Jan - 12:17:34 10° W 12:24:34 53° S 12:35:08 10° ESE daylight
20 Jan - 14:21:02 10° W 14:29:04 37° SSW 14:40:12 10° SE daylight
20 Jan - 16:27:17 10° WSW 16:33:29 16° SW 16:40:39 10° S daylight
21 Jan - 07:43:03 10° S 07:45:35 14° SE 07:48:26 10° ESE daylight
21 Jan - 09:42:51 10° SW 09:48:05 40° SSE 09:55:30 10° E daylight
21 Jan - 11:45:13 10° WSW 11:51:45 52° S 12:01:37 10° ESE daylight
21 Jan - 13:48:30 10° W 13:56:06 38° SSW 14:06:51 10° SE daylight
21 Jan - 15:54:06 10° WSW 16:00:30 18° SW 16:08:07 10° S daylight
22 Jan - 07:12:29 10° SSE 07:13:12 10° SE 07:13:56 10° SE daylight
22 Jan - 09:10:43 10° SW 09:15:32 36° SSE 09:22:11 10° E daylight
22 Jan - 11:12:56 10° WSW 11:19:01 51° S 11:28:08 10° ESE daylight
22 Jan - 13:16:02 10° W 13:23:11 39° SSW 13:33:29 10° SE daylight
22 Jan - 15:21:06 10° WSW 15:27:32 19° SW 15:35:23 10° S daylight
23 Jan - 08:38:37 10° SW 08:43:03 31° SSE 08:48:55 10° E daylight
23 Jan - 10:40:39 10° WSW 10:46:20 50° S 10:54:45 10° ESE daylight
23 Jan - 12:43:36 10° W 12:50:20 40° SSW 13:00:07 10° SE daylight
23 Jan - 14:48:15 10° WSW 14:54:36 20° SSW 15:02:33 10° S daylight
24 Jan - 08:06:33 10° SSW 08:10:37 27° SSE 08:15:44 10° E daylight
24 Jan - 10:08:24 10° WSW 10:13:43 48° S 10:21:24 10° ESE daylight
24 Jan - 12:11:14 10° W 12:17:32 40° SSW 12:26:45 10° SE daylight
24 Jan - 14:15:31 10° WSW 14:21:42 22° SSW 14:29:37 10° SSE daylight
25 Jan - 07:34:31 10° SSW 07:38:12 23° SSE 07:42:36 10° ESE daylight
25 Jan - 09:36:10 10° WSW 09:41:08 45° S 09:48:08 10° ESE daylight
25 Jan - 11:38:54 10° W 11:44:48 41° SSW 11:53:25 10° SE daylight
25 Jan - 13:42:53 10° WSW 13:48:51 23° SSW 13:56:38 10° SSE daylight
26 Jan - 07:02:33 10° SSW 07:05:48 19° SSE 07:09:30 10° ESE daylight
26 Jan - 09:03:55 10° WSW 09:08:36 42° S 09:14:58 10° ESE daylight
26 Jan - 11:06:35 10° W 11:12:08 41° S 11:20:08 10° SE daylight
26 Jan - 13:10:19 10° WSW 13:16:02 24° SSW 13:23:36 10° SSE daylight
27 Jan - 06:30:39 10° S 06:33:24 16° SSE 06:36:24 10° ESE visible
27 Jan - 08:31:42 10° WSW 08:36:07 39° SSE 08:41:52 10° ESE daylight
27 Jan - 10:34:17 10° WSW 10:39:29 41° S 10:46:54 10° ESE daylight
27 Jan - 12:37:50 10° WSW 12:43:17 24° SSW 12:50:34 10° SSE daylight
28 Jan - 05:58:51 10° S 06:01:00 13° SSE 06:03:15 10° ESE visible
28 Jan - 07:59:28 10° SW 08:03:39 35° SSE 08:08:52 10° ESE daylight
28 Jan - 10:02:00 10° WSW 10:06:55 41° S 10:13:44 10° ESE daylight
28 Jan - 12:05:23 10° WSW 12:10:34 25° SSW 12:17:31 10° SSE daylight
